[[{"header":{"parameterUnit":"m.s-1","parameterCategory":1,"la1":30.2991,"la2":30.254,"lo1":-89.0895,"lo2":-89.0444,"dy":0.0017,"dx":0.0017,"nx":28,"ny":28,"refTime":"2023-08-10T21:00:00:Z","depth":0,"parameterNumber":2,"parameterNumberName":"U-component_of_WINDS"},"data":[0,0,0,0,0,0,0,0,0,0,0,0,0,0,0,0,0,0,0,0,0,0,0,0,0,0,0,0,0,0,0,0,0,0,0,0,0,0,0,0,0,0,0,0,0,0,0,0,0,0,0,0,0,0,0,0,0,0,3.4103,3.4104,0,3.4237,3.4238,3.424,3.4175,3.4172,3.4168,3.4165,3.4303,3.431,3.4317,0,0,0,0,0,0,0,0,0,0,0,0,0,3.3791,3.3797,3.4103,3.4104,3.4106,3.4236,3.4238,3.424,3.4176,3.4171,3.4167,3.4163,3.4301,3.4309,3.4317,0,0,0,0,0,0,0,0,0,0,0,0,0,3.3926,3.3799,3.4102,3.409,3.409,3.4236,3.4238,3.424,3.4177,3.4171,3.4166,3.4161,3.4298,3.4308,3.4318,3.4485,0,0,3.435,3.4354,0,0,0,0,0,0,0,0,3.3918,3.3937,3.409,3.4091,3.4091,3.4184,3.4179,3.4323,3.4178,3.4144,3.4165,3.4159,3.4268,3.428,3.4317,3.4492,3.4498,3.4351,3.4357,3.4362,3.4364,0,0,0,0,0,0,0,3.3909,3.3931,3.4156,3.4092,3.4093,3.4077,3.409,3.4206,3.4233,3.4146,3.4142,3.4159,3.4267,3.4307,3.4319,3.45,3.4351,3.436,3.4366,3.437,3.4816,3.4821,0,0,0,0,0,0,3.39,3.3924,3.4151,3.416,3.399,3.4087,3.4102,3.4159,3.4232,3.4238,3.4163,3.4155,3.4292,3.4307,3.4324,3.4523,3.4361,3.4371,3.4377,3.481,3.4817,3.4823,0,0,0,0,0,0,3.3893,3.3921,3.4146,3.4041,3.4068,3.4098,3.4163,3.4165,3.4204,3.4244,3.4249,3.4198,3.4288,3.431,3.4445,3.4526,3.4376,3.4385,3.4804,3.4813,3.482,3.4922,0,0,0,0,0,0,3.3885,3.3919,3.3983,3.4042,3.4074,3.4265,3.4168,3.4171,3.4222,3.4213,3.4279,3.4285,3.4286,3.443,3.4455,3.4538,3.4393,3.4797,3.4808,3.4818,3.4912,3.4933,3.4951,0,0,0,0,0,3.3874,3.4007,3.3986,3.4014,3.4154,3.427,3.4288,3.4286,3.4229,3.4293,3.4318,3.4283,3.4514,3.4444,3.4472,3.4559,3.4791,3.4805,3.4817,3.4903,3.4929,3.4951,0,0,0,0,0,0,3.3957,3.4014,3.3992,3.4149,3.4205,3.4259,3.434,3.4314,3.4388,3.4377,3.4372,3.4388,3.4528,3.4557,3.4479,3.4724,3.4644,3.4663,3.4699,3.4724,3.4744,3.4734,3.4402,0,0,0,0,0,3.3993,3.4082,3.4128,3.4261,3.429,3.4311,3.4361,3.4355,3.4413,3.4436,3.4472,3.453,3.4615,3.4671,3.4752,3.4915,3.4928,3.4989,3.5009,3.5025,3.5041,3.5128,3.5155,3.4865,3.4865,3.4865,0,0,3.4069,3.4112,3.4169,3.4279,3.4322,3.4414,3.4331,3.4432,3.45,3.4452,3.4581,3.4609,3.4674,3.4823,3.4891,3.4852,3.5124,3.5041,3.5054,3.5061,3.5144,3.5171,3.5196,3.4874,3.4872,3.4871,0,0,3.4255,3.4297,3.4411,3.4456,3.4521,3.4533,3.4561,3.4619,3.4635,3.4765,3.473,3.4811,3.4959,3.5005,3.5048,3.525,3.5219,3.5276,3.538,3.5465,3.5487,3.5508,3.5578,3.5604,3.5292,3.5293,3.5293,0,3.4341,3.4479,3.4474,3.4577,3.4626,3.4586,3.4702,3.4745,3.4834,3.4868,3.4823,3.5006,3.5047,3.5206,3.5255,3.5292,3.5322,3.5269,3.5484,3.5505,3.5523,3.5591,3.5617,3.5299,3.5298,3.5298,3.5297,0,3.4581,3.4677,3.4761,3.4847,3.4906,3.5015,3.5026,3.5086,3.5075,3.5091,3.5223,3.527,3.5359,3.5397,3.5387,3.5554,3.5528,3.5484,3.5404,3.5558,3.5621,3.5646,3.5308,3.5306,3.5304,3.5303,0,0,3.4823,3.4904,3.4935,3.4972,3.5041,3.5115,3.5222,3.5308,3.5359,3.5421,3.551,3.5635,3.5594,3.5643,3.5638,3.5713,3.5867,3.5659,3.5661,3.5695,3.6053,3.6085,3.6115,3.5847,3.5852,3.5856,3.6047,0,3.5012,3.5199,3.5197,3.537,3.5457,3.542,3.5513,3.5564,3.5583,3.5659,3.5679,3.5768,3.5708,3.5737,3.5809,3.5833,3.5939,3.582,3.5929,3.5933,3.5914,3.6148,3.6182,3.636,3.6072,3.6076,3.6079,0,3.5259,3.5328,3.5509,3.5563,3.56,3.5684,3.5761,3.5835,3.5893,3.5901,3.5955,3.5938,3.6046,3.5962,3.611,3.6029,3.6074,3.6092,3.6099,3.6109,3.6015,3.6163,3.6417,3.6443,3.6118,3.6115,3.6112,0,3.5415,3.5554,3.568,3.5714,3.5781,3.584,3.587,3.5923,3.5974,3.6042,3.6075,3.6156,3.62,3.6262,3.6267,3.6206,3.6415,3.6333,3.6424,3.6424,3.647,3.6467,3.6734,3.6501,3.65,3.65,3.6499,0,3.5627,3.5739,3.5751,3.5829,3.5953,3.5949,3.6072,3.6097,3.6144,3.6225,3.6197,3.6274,3.6276,3.6354,3.6359,3.648,3.65,3.6509,3.6509,3.6511,3.651,3.654,3.6528,3.6507,3.6505,3.6504,3.6503,0,3.5823,3.5836,3.597,3.6022,3.6037,3.6126,3.617,3.6244,3.6259,3.6362,3.6386,3.641,3.65,3.6511,3.6617,3.662,3.6766,3.6753,3.6746,3.6744,3.6834,3.6825,3.7129,3.7169,3.691,3.6913,3.6915,0,3.5956,3.6041,3.6102,3.6154,3.6187,3.6272,3.6324,3.6323,3.6378,3.6449,3.6514,3.6602,3.6672,3.6818,3.6845,3.6926,3.6914,3.7015,3.6926,3.6925,3.6914,3.6909,3.6916,3.7032,3.7035,3.7037,3.7039,0,3.6191,3.6193,3.6269,3.6347,3.641,3.6471,3.6529,3.6573,3.658,3.6643,3.6735,3.6789,3.6896,3.6983,3.7062,3.7093,3.7068,3.7067,3.7092,3.7095,3.7087,3.7091,3.6792,3.706,3.7058,3.7056,3.7055,3.7054,3.6359,3.6433,3.6486,3.6571,3.6614,3.6668,3.6739,3.6763,3.6839,3.6926,3.6921,3.7022,3.7076,3.718,3.7216,3.7295,3.7262,3.7299,3.7308,3.7317,3.7325,3.7075,3.731,3.7309,3.7308,3.7308,3.7308,0,3.6592,3.6624,3.6702,3.6783,3.685,3.6819,3.6881,3.6939,3.7028,3.708,3.7149,3.7254,3.7338,3.7371,3.7453,3.7509,3.7499,3.7531,3.7526,3.7534,3.7351,3.732,3.7537,3.7537,3.7537,3.7537,3.7537,3.7537,3.6721,3.6843,3.6851,3.6993,3.7024,3.7123,3.7161,3.721,3.7252,3.737,3.7439,3.746,3.7504,3.7589,3.7664,3.7671,3.7702,3.7739,3.7741,3.757,3.7547,3.7525,3.7496,3.7746,3.7746,3.7917,3.7919,3.792]},{"header":{"parameterUnit":"m.s-1","parameterCategory":1,"la1":30.2991,"la2":30.254,"lo1":-89.0895,"lo2":-89.0444,"dy":0.0017,"dx":0.0017,"nx":28,"ny":28,"refTime":"2023-08-10T21:00:00:Z","depth":0,"parameterNumber":3,"parameterNumberName":"V-component_of_WINDS"},"data":[0,0,0,0,0,0,0,0,0,0,0,0,0,0,0,0,0,0,0,0,0,0,0,0,0,0,0,0,0,0,0,0,0,0,0,0,0,0,0,0,0,0,0,0,0,0,0,0,0,0,0,0,0,0,0,0,0,0,5.9738,5.9739,0,5.9838,5.9839,5.984,5.9789,5.9787,5.9784,5.9782,5.9877,5.9882,5.9887,0,0,0,0,0,0,0,0,0,0,0,0,0,5.9494,5.9498,5.9738,5.9739,5.9741,5.9838,5.9839,5.9841,5.979,5.9787,5.9784,5.9781,5.9875,5.9881,5.9887,0,0,0,0,0,0,0,0,0,0,0,0,0,5.9597,5.95,5.9738,5.9727,5.9727,5.9838,5.9839,5.9841,5.9791,5.9787,5.9783,5.9779,5.9873,5.988,5.9888,6.0012,0,0,5.9911,5.9914,0,0,0,0,0,0,0,0,5.9591,5.9606,5.9727,5.9728,5.9728,5.9798,5.9788,5.9898,5.9792,5.9766,5.9782,5.9777,5.9853,5.9862,5.9889,6.0017,6.0021,5.9911,5.9916,5.9919,5.9921,0,0,0,0,0,0,0,5.9584,5.9602,5.9777,5.9729,5.973,5.9714,5.9725,5.9809,5.983,5.9768,5.9765,5.9778,5.9852,5.9882,5.9891,6.0022,5.9911,5.9918,5.9922,5.9925,6.0253,6.0257,0,0,0,0,0,0,5.9579,5.9596,5.9774,5.978,5.9649,5.9722,5.9734,5.9779,5.9829,5.9833,5.9781,5.9775,5.9871,5.9882,5.9894,6.0041,5.9919,5.9926,5.993,6.0249,6.0254,6.0258,0,0,0,0,0,0,5.9574,5.9595,5.977,5.9687,5.9708,5.973,5.9782,5.9783,5.9813,5.9839,5.9842,5.9808,5.9869,5.9884,5.9983,6.0043,5.9929,5.9936,6.0244,6.025,6.0256,6.0337,0,0,0,0,0,0,5.9567,5.9594,5.9644,5.9689,5.9713,5.986,5.9786,5.9788,5.9827,5.982,5.9865,5.9868,5.9867,5.9972,5.999,6.0051,5.9942,6.0238,6.0247,6.0254,6.0329,6.0345,6.0359,0,0,0,0,0,5.9558,5.9661,5.9646,5.9668,5.9776,5.9864,5.9878,5.9876,5.9832,5.988,5.9897,5.9867,6.0034,5.9983,6.0003,6.0067,6.0235,6.0244,6.0254,6.0322,6.0342,6.0358,0,0,0,0,0,0,5.962,5.9667,5.9651,5.9772,5.9815,5.9855,5.9917,5.9897,5.9951,5.9942,5.9935,5.9945,6.0048,6.0068,6.001,6.0188,6.0127,6.0141,6.0172,6.0191,6.0206,6.0198,5.9948,0,0,0,0,0,5.9648,5.9719,5.9755,5.9858,5.988,5.9895,5.9933,5.9928,5.9971,5.9988,6.0011,6.0052,6.0113,6.0153,6.0211,6.0331,6.0338,6.0385,6.04,6.0413,6.0424,6.0486,6.0506,6.029,6.029,6.029,0,0,5.9706,5.9741,5.9785,5.9871,5.9903,5.9973,5.991,5.9987,6.0038,5.9998,6.0094,6.0113,6.0157,6.0266,6.0316,6.0286,6.0486,6.0425,6.0434,6.0439,6.0498,6.0518,6.0536,6.0296,6.0295,6.0294,0,0,5.9847,5.9882,5.997,6.0004,6.0055,6.0064,6.0085,6.0128,6.014,6.0236,6.0207,6.0265,6.0372,6.0404,6.0434,6.0585,6.0559,6.0604,6.0682,6.0743,6.076,6.0775,6.0826,6.0845,6.0616,6.0616,6.0616,0,5.9912,6.0019,6.0018,6.0097,6.0134,6.0104,6.0191,6.0223,6.0289,6.0313,6.028,6.0411,6.0439,6.0554,6.0591,6.0617,6.0638,6.0598,6.0758,6.0773,6.0787,6.0835,6.0855,6.0621,6.0621,6.062,6.062,0,6.0095,6.0169,6.0234,6.03,6.0345,6.0427,6.0435,6.048,6.0471,6.0482,6.0578,6.061,6.0673,6.07,6.0691,6.0814,6.0793,6.0759,6.0697,6.0813,6.0858,6.0877,6.0628,6.0627,6.0625,6.0624,0,0,6.0277,6.0342,6.0365,6.0394,6.0447,6.0502,6.0582,6.0645,6.0682,6.0728,6.0792,6.0883,6.0851,6.0885,6.0879,6.0932,6.1046,6.0891,6.0892,6.0917,6.1179,6.1203,6.1225,6.103,6.1033,6.1036,6.1175,0,6.042,6.0563,6.0563,6.0693,6.076,6.0731,6.08,6.0838,6.085,6.0906,6.0918,6.0981,6.0936,6.0956,6.1008,6.1022,6.1098,6.1012,6.1086,6.1089,6.1074,6.1249,6.1275,6.1405,6.1193,6.1196,6.1198,0,6.0606,6.066,6.0797,6.0838,6.0866,6.0928,6.0985,6.104,6.108,6.1085,6.1123,6.1109,6.1186,6.1123,6.1227,6.1169,6.1199,6.121,6.1215,6.122,6.1149,6.1257,6.1446,6.1465,6.1226,6.1224,6.1222,0,6.0722,6.0829,6.0924,6.095,6.1,6.1044,6.1067,6.1104,6.1142,6.119,6.1214,6.127,6.13,6.1343,6.1342,6.1297,6.1447,6.1385,6.145,6.145,6.1482,6.148,6.1677,6.1505,6.1505,6.1505,6.1504,0,6.088,6.0965,6.0977,6.1035,6.1128,6.1126,6.1216,6.1234,6.1267,6.1326,6.1304,6.1359,6.1356,6.1411,6.1411,6.1496,6.151,6.1514,6.1512,6.1515,6.1514,6.1533,6.1523,6.151,6.1509,6.1508,6.1507,0,6.1025,6.1037,6.1139,6.1179,6.1191,6.1257,6.1289,6.1343,6.1353,6.1427,6.1445,6.146,6.1523,6.1527,6.16,6.1599,6.1701,6.1691,6.1688,6.1686,6.175,6.1743,6.1965,6.1992,6.1805,6.1807,6.1808,0,6.1125,6.1189,6.1236,6.1275,6.1301,6.1364,6.1402,6.1402,6.1442,6.1492,6.1539,6.16,6.1649,6.1751,6.1766,6.1821,6.181,6.1884,6.1818,6.1818,6.1808,6.1804,6.1808,6.1896,6.1898,6.19,6.1901,0,6.1299,6.1301,6.1359,6.1418,6.1464,6.151,6.1553,6.1585,6.1589,6.1635,6.17,6.1738,6.1813,6.1873,6.1926,6.1945,6.1923,6.1922,6.194,6.1942,6.1937,6.1938,6.1721,6.1917,6.1915,6.1914,6.1913,6.1913,6.1422,6.1477,6.1519,6.1582,6.1615,6.1655,6.1707,6.1724,6.1779,6.1841,6.1837,6.1908,6.1944,6.2013,6.2037,6.2091,6.2065,6.2092,6.2098,6.2104,6.2109,6.193,6.2101,6.21,6.21,6.2099,6.2099,0,6.1593,6.1618,6.1677,6.1738,6.1787,6.1765,6.181,6.1852,6.1916,6.1953,6.2002,6.2075,6.2133,6.2153,6.2208,6.2247,6.2238,6.2261,6.2257,6.2261,6.213,6.2108,6.2268,6.2268,6.2268,6.2268,6.2267,6.2267,6.1687,6.1778,6.1785,6.1891,6.1914,6.1986,6.2014,6.2049,6.2078,6.2162,6.2211,6.2224,6.2253,6.231,6.2361,6.2365,6.2385,6.2412,6.2412,6.2288,6.2271,6.2255,6.2234,6.2417,6.2417,6.2538,6.2539,6.254]}]]